Home   Weather   Sarnia   Past weeks

Flag for Canada Past Weather in Sarnia, Ontario, Canada — Yesterday and Last 2 Weeks

45 °F

Passing clouds.

Feels Like: 40 °F
Forecast: 35 / 44 °F
Wind: 8 mph from North

Location: Sarnia Airport

Current Time: Oct 25, 2016 at 10:22:19 PM

Latest Report: Oct 25, 2016 at 9:00 PM

Visibility: 9 mi

Pressure: 30.46 "Hg

Humidity: 71%

Dew Point: 36 °F

Location of SarniaLocation

Past Weather in Sarnia — Graph


Sarnia Temperature Yesterday

Maximum temperature yesterday: 54 °F (at 12:00 AM)
Minimum temperature yesterday: 46 °F (at 5:00 AM)
Average temperature yesterday: 48 °F

High & Low Weather Summary for the Past Weeks

High79 °F (Oct 17, 3:00 PM)100% (Oct 17, 12:00 AM)30.46 "Hg (Oct 17, 12:00 AM)
Low37 °F (Oct 14, 3:00 AM)40% (Oct 11, 4:00 PM)29.57 "Hg (Oct 18, 12:00 PM)
Average56 °F76%30.05 "Hg
* Reported Oct 10 9:00 PM — Oct 25 9:00 PM, Sarnia, Weather by CustomWeather, © 2016

Note: Actual official high and low records may vary slightly from our data, if they occured in-between our weather recording intervals... More about our weather records


Sarnia Weather History for the Previous 24 Hours

Scroll right to see more
Time TempWeatherWind HumidityBarometerVisibility
9:00 PM
Tue, Oct 25
45 °FPassing clouds.8 mph71%30.46 "Hg9 mi
8:00 PM43 °FPassing clouds.6 mph66%30.46 "Hg9 mi
7:00 PM43 °FClear.9 mph61%30.44 "Hg9 mi
6:00 PM45 °FSunny.9 mph61%30.42 "Hg9 mi
5:00 PM48 °FPassing clouds.17 mph58%30.42 "Hg9 mi
4:00 PM48 °FOvercast.17 mph54%30.42 "Hg9 mi
3:00 PM48 °FPartly sunny.13 mph58%30.42 "Hg9 mi
2:00 PM48 °FOvercast.13 mph66%30.42 "Hg9 mi
1:00 PM48 °FBroken clouds.15 mph58%30.42 "Hg9 mi
12:00 PM50 °FSunny.17 mph54%30.42 "Hg9 mi
11:00 AM48 °FSunny.17 mph66%30.41 "Hg9 mi
10:00 AM45 °FSunny.15 mph71%30.42 "Hg9 mi
9:00 AM43 °FSunny.12 mph76%30.41 "Hg9 mi
8:00 AM41 °FSunny.9 mph81%30.39 "Hg9 mi
7:00 AM41 °FClear.14 mph81%30.38 "Hg9 mi
6:00 AM41 °FClear.10 mph81%30.37 "Hg9 mi
5:00 AM41 °FClear.13 mph81%30.36 "Hg9 mi
4:00 AM43 °FPassing clouds.17 mph76%30.36 "Hg9 mi
3:00 AM43 °FClear.16 mph76%30.35 "Hg9 mi
2:00 AM45 °FClear.16 mph66%30.34 "Hg9 mi
1:00 AM45 °FClear.12 mph76%30.34 "Hg9 mi
12:00 AM45 °FClear.10 mph76%30.34 "Hg9 mi
11:00 PM
Mon, Oct 24
46 °FPassing clouds.14 mph71%30.33 "Hg9 mi
10:00 PM46 °FClear.14 mph71%30.32 "Hg9 mi
Weather by CustomWeather, © 2016

See weather overviewHow to use our weather pages